sat.trackr.live / text

‹ back to catalog

STARLINK-5096

NORAD 54006 · 2022-125AU

PAYLOAD ACTIVE UNKNOWN

§ Identity

Operator
Country
US
Launch date
2022-10-05
Launch site
AFWTR
Launch vehicle
Mass (kg)
RCS (m²)

Purposes: comms

External: N2YO · Heavens-Above · Gunter

§ Orbital elements

Epoch: 2026-09-20T16:29:47.399424Z

Period
94.01 min
Inclination
53.1614°
Eccentricity
0.0001055
Mean motion
15.31708610 rev/d
Perigee alt
470.0 km
Apogee alt
471.4 km
Semi-major
6,848.9 km
B*
4.5778e-5
RAAN
48.0793°
Arg perigee
84.2572°
Mean anomaly
275.8550°
Rev number
21,903

§ Raw data

STARLINK-50961 54006U 22125AU  26263.68735416  .00001056  00000+0  45778-4 0  99922 54006  53.1614  48.0793 0001055  84.2572 275.8550 15.31708610219036

JSON: /api/v1/satellites/54006 · /tle

For live sub-satellite position, see the globe view (requires WebGL).

§ Visibility from observer

Set your observer location to see the next 7 days of passes ≥ 10°. The values pass through the URL so the page stays shareable.

No JS? Fill the form by hand. The geolocation button needs JavaScript.